Location: Unspecified
(0.0000°N, 0.0000°E)
Time: 16:49:43
(UTC+00:00)

Hubble Space Telescope - Pass Details

Date: 09 May 2021
Orbit: 535 x 539 km, 28.5° (Epoch: 14 May)

Event Time Altitude Azimuth Distance (km) Brightness Sun altitude
Rises 18:57:50 0° 285° (WNW) 2,671 6.3 -14.6°
Reaches altitude 10° 19:00:14 10° 276° (W) 1,782 4.7 -15.2°
Maximum altitude 19:04:00 34° 210° (SSW) 892 2.0 -16.1°
Enters shadow 19:06:10 20° 158° (SSE) 1,257 2.3 -16.6°
